This demonstration page uses our WeatherBlox Daily Observations layout. Learn more.

Left ArrowRight Arrow

39.51506, -84.39828

Hourly Observations for May 17, 2021

Temp ( °F °C ) Dew Point ( °F °C ) Humidity (%) Winds ( mph kmh ) Pressure ( in mb ) Visibility ( mi km ) Precip ( " mm )
12:15 am 00:15 Clear 55 12.5 54 12.1 97 97 Calm 30.20 1023 10 16 0.00 0.00
12:35 am 00:35 Clear 55 12.7 54 12.3 97 97 Calm 30.21 1023 10 16 0.00 0.00
12:55 am 00:55 Clear 55 12.6 54 12.2 97 97 Calm 30.21 1023 10 16 0.00 0.00
1:15 am 01:15 Clear 55 12.8 54 12 95 95 Calm 30.20 1023 10 16 0.00 0.00
1:35 am 01:35 Clear 55 12.6 55 12.5 99 99 NNE 3 6 30.20 1023 10 16 0.00 0.00
1:55 am 01:55 Clear 55 12.8 54 12.4 97 97 NNE 5 7 30.19 1022 10 16 0.00 0.00
2:15 am 02:15 Clear 55 12.6 55 12.5 99 99 Calm 30.18 1022 10 16 0.00 0.00
2:35 am 02:35 Clear 55 12.7 55 12.5 99 99 NNW 5 7 30.19 1022 10 16 0.00 0.00
2:55 am 02:55 Clear 56 13.2 55 12.7 97 97 Calm 30.18 1022 10 16 0.00 0.00
3:15 am 03:15 Clear 55 13 55 12.6 97 97 Calm 30.18 1022 10 16 0.00 0.00
3:35 am 03:35 Clear 55 12.7 54 12.2 97 97 NE 5 7 30.18 1022 10 16 0.00 0.00
3:55 am 03:55 Clear 55 12.7 54 12.1 96 96 NNE 5 7 30.18 1022 10 16 0.00 0.00
4:15 am 04:15 Clear 55 12.5 54 12.2 98 98 Calm 30.18 1022 10 16 0.00 0.00
4:35 am 04:35 Clear 55 12.6 54 12.4 99 99 Calm 30.18 1022 10 16 0.00 0.00
4:55 am 04:55 Clear 54 12 N/A N/A Calm 30.18 1022 10 16 0.00 0.00
5:15 am 05:15 Clear 54 12 53 11.9 99 99 NNE 6 9 30.18 1022 10 16 0.00 0.00
5:35 am 05:35 Clear 54 12.3 54 12.1 99 99 Calm 30.18 1022 10 16 0.00 0.00
5:55 am 05:55 Clear 55 12.8 55 12.5 98 98 NE 6 9 30.18 1022 10 16 0.00 0.00
6:15 am 06:15 Mostly Cloudy 56 13.2 54 12.4 95 95 Calm 30.20 1023 10 16 0.00 0.00
6:35 am 06:35 Cloudy 56 13.2 55 12.6 96 96 N 3 6 30.21 1023 10 16 0.00 0.00
6:55 am 06:55 Cloudy with Rain 56 13.1 55 12.6 97 97 N 6 9 30.22 1023 10 16 0.01 0.25
7:15 am 07:15 Cloudy with Light Rain 56 13.3 56 13.2 99 99 Calm 30.23 1024 5 8 0.03 0.76
7:35 am 07:35 Cloudy with Light Rain 55 13 N/A N/A Calm 30.24 1024 4 6 0.05 1.27
7:55 am 07:55 Cloudy with Light Rain 55 13 N/A N/A Calm 30.25 1024 5 8 0.08 2.03
8:15 am 08:15 Cloudy with Light Rain 55 13 N/A N/A NNE 3 6 30.26 1025 5 8 0.02 0.51
8:35 am 08:35 Cloudy with Rain 57 14 N/A N/A NE 3 6 30.26 1025 4 6 0.06 1.52
8:55 am 08:55 Cloudy with Rain 57 14 N/A N/A ESE 8 13 30.24 1024 3 5 0.11 2.79
9:15 am 09:15 Cloudy with Light Rain 57 14 N/A N/A E 7 11 30.24 1024 5 8 0.01 0.25
9:35 am 09:35 Cloudy with Light Rain 58 14.3 57 14 98 98 Calm 30.25 1024 10 16 0.02 0.51
9:55 am 09:55 Cloudy with Light Rain 58 14.6 57 14.1 97 97 S 3 6 30.26 1025 7 11 0.04 1.02
10:15 am 10:15 Cloudy with Light Rain 58 14.6 58 14.2 97 97 ESE 6 9 30.25 1024 5 8 0.02 0.51
10:35 am 10:35 Cloudy with Rain 58 14.6 58 14.2 97 97 S 5 7 30.26 1025 5 8 0.04 1.02
10:55 am 10:55 Cloudy with Rain 58 14.4 57 14 97 97 SSE 6 9 30.26 1025 5 8 0.08 2.03
11:15 am 11:15 Cloudy with Light Rain 58 14.6 58 14.2 97 97 S 7 11 30.26 1025 10 16 0.01 0.25
11:35 am 11:35 Cloudy with Light Rain 58 14.6 57 14.1 97 97 S 9 15 30.27 1025 10 16 0.03 0.76
11:55 am 11:55 Cloudy with Light Rain 59 14.8 58 14.4 97 97 S 7 11 30.27 1025 10 16 0.04 1.02
12:15 pm 12:15 Cloudy with Light Rain 58 14.7 58 14.2 97 97 SSE 9 15 30.26 1025 10 16 0.01 0.25
12:35 pm 12:35 Cloudy with Light Rain 58 14.7 58 14.5 99 99 S 8 13 30.25 1024 7 11 0.03 0.76
12:55 pm 12:55 Cloudy with Light Rain 58 14.6 58 14.2 97 97 S 8 13 30.26 1025 10 16 0.04 1.02
1:15 pm 13:15 Cloudy with Light Rain 58 14.7 58 14.4 98 98 S 6 9 30.26 1025 10 16 0.01 0.25
1:35 pm 13:35 Cloudy with Rain 58 14.7 58 14.4 98 98 SSE 7 11 30.26 1025 7 11 0.03 0.76
1:55 pm 13:55 Cloudy with Rain 59 15 58 14.7 98 98 Calm 30.26 1025 5 8 0.06 1.52
2:15 pm 14:15 Cloudy with Light Rain 59 15.1 58 14.7 97 97 SSE 3 6 30.26 1025 10 16 0.00 0.00
2:35 pm 14:35 Cloudy with Light Rain 60 15.4 59 15 97 97 ESE 7 11 30.25 1024 10 16 0.01 0.25
2:55 pm 14:55 Cloudy 60 15.4 59 14.9 97 97 SE 6 9 30.26 1025 10 16 0.01 0.25
3:15 pm 15:15 Cloudy with Light Rain 60 15.3 59 15 98 98 SE 6 9 30.26 1025 4 6 0.02 0.51
3:35 pm 15:35 Cloudy with Light Rain 60 15.4 59 15.1 98 98 ESE 6 9 30.25 1024 7 11 0.04 1.02
3:55 pm 15:55 Cloudy with Light Rain 60 15.4 60 15.4 100 100 E 3 6 30.25 1024 10 16 0.04 1.02
4:15 pm 16:15 Cloudy with Light Rain 60 15.5 60 15.5 100 100 E 8 13 30.24 1024 10 16 0.00 0.00
4:35 pm 16:35 Cloudy with Light Rain 59 15 N/A N/A E 6 9 30.25 1024 10 16 0.00 0.00
4:55 pm 16:55 Cloudy 61 16 59 15 94 94 E 5 7 30.23 1024 10 16 0.00 0.00
5:15 pm 17:15 Cloudy 60 15.6 60 15.6 100 100 SE 3 6 30.24 1024 10 16 0.00 0.00
5:35 pm 17:35 Cloudy 61 16.2 61 15.9 98 98 ESE 7 11 30.23 1024 10 16 0.00 0.00
5:55 pm 17:55 Cloudy 61 16.3 60 15.6 96 96 ESE 7 11 30.23 1024 10 16 0.00 0.00
6:15 pm 18:15 Cloudy 62 16.5 60 15.7 95 95 SE 6 9 30.23 1024 10 16 0.00 0.00
6:35 pm 18:35 Cloudy 62 16.5 61 15.9 96 96 E 6 9 30.23 1024 10 16 0.00 0.00
6:55 pm 18:55 Mostly Cloudy 62 16.5 60 15.8 96 96 E 6 9 30.23 1024 10 16 0.00 0.00
7:15 pm 19:15 Partly Cloudy 62 16.4 60 15.7 96 96 E 7 11 30.23 1024 10 16 0.00 0.00
7:35 pm 19:35 Partly Cloudy 62 16.4 60 15.7 96 96 E 8 13 30.23 1024 10 16 0.00 0.00
7:55 pm 19:55 Sunny 61 16.2 60 15.8 97 97 E 7 11 30.23 1024 10 16 0.00 0.00
8:15 pm 20:15 Sunny 61 16 60 15.7 98 98 ENE 6 9 30.23 1024 10 16 0.00 0.00
8:35 pm 20:35 Sunny 60 15.6 60 15.6 100 100 E 5 7 30.24 1024 10 16 0.00 0.00
8:55 pm 20:55 Clear 60 15.3 60 15.3 100 100 E 5 7 30.24 1024 10 16 0.00 0.00
9:15 pm 21:15 Clear with Mist and Fog 59 15.1 59 15.1 100 100 ESE 3 6 30.24 1024 4 6 0.00 0.00
9:35 pm 21:35 Clear 59 14.8 58 14.7 99 99 ENE 3 6 30.25 1024 10 16 0.00 0.00
9:55 pm 21:55 Hazy 59 15 N/A N/A ENE 5 7 30.25 1024 5 8 0.00 0.00
10:15 pm 22:15 Clear 57 14 N/A N/A ENE 3 6 30.26 1025 10 16 0.00 0.00
10:35 pm 22:35 Clear 57 14 N/A N/A E 5 7 30.26 1025 10 16 0.00 0.00
10:55 pm 22:55 Clear with Mist and Fog 57 14 N/A N/A E 3 6 30.26 1025 4 6 0.00 0.00
11:15 pm 23:15 Clear 57 14 N/A N/A ENE 5 7 30.26 1025 7 11 0.00 0.00
11:35 pm 23:35 Clear 57 14 N/A N/A NE 3 6 30.26 1025 10 16 0.00 0.00
11:55 pm 23:55 Mostly Cloudy 57 14 N/A N/A ENE 5 7 30.26 1025 10 16 0.00 0.00

Powered by AerisWeather